Location: Les Cordiers
(43.9313°N, 5.3408°E)
Time: 07:07:39
(UTC+00:00)

Daily predictions for brighter satellites

Satellite Brightness Start Highest point End
(mag) Time Altitude Azimuth Time Altitude Azimuth Time Altitude Azimuth
H-2A R/B 2.2 16:54:57 10° NNE 16:59:23 62° ESE 17:03:42 10° S
USA 234 4.4 16:54:30 10° NE 16:59:51 28° N 17:05:15 10° NW
ATLAS 5 CENTAUR R/B 1.6 16:56:03 10° SW 17:00:01 76° NW 17:04:28 10° NE
FengYun 1-2 T 4.3 16:55:12 10° SSE 17:00:39 61° ENE 17:06:10 10° N
Tsikada Rocket 4.4 16:55:37 10° SSW 17:01:57 74° W 17:08:13 10° N
NOAA 12 4.1 16:57:21 10° SSE 17:02:34 85° ENE 17:07:50 10° NNW
CZ-4C R/B 3.1 17:00:04 10° N 17:03:12 67° WNW 17:06:21 10° SSW
SL-14 R/B 3.2 17:00:00 10° S 17:03:52 74° E 17:07:45 10° NNE
RESURS DK-1 3.3 17:01:25 10° SW 17:05:25 48° WNW 17:09:27 10° NNE
MOS 1 Rocket 4.3 17:05:17 10° NE 17:08:38 22° E 17:11:57 10° SE
ATLAS 3B R/B 3.2 17:02:01 10° NW 17:08:59 71° WSW 17:16:12 10° SSE
Cosmos 2228 3.1 17:05:15 10° N 17:09:28 56° E 17:13:39 10° SSE
BREEZE-M DEB (TANK) 3.4 17:07:19 10° W 17:10:06 36° SSW 17:13:10 10° SE
Cosmos 2142 Rocket 4.5 17:05:28 10° N 17:11:36 63° E 17:17:39 10° SSE
Meteor 2-5 Rocket 3.7 17:07:06 10° S 17:12:41 84° E 17:18:15 10° NNE
CZ-4C R/B 3.5 17:09:05 10° W 17:13:41 32° NW 17:19:06 10° NNE
SKYMED 2 4.3 17:10:44 10° NNE 17:14:42 33° E 17:18:37 10° SSE
SJ 16-02 2.8 17:12:39 10° SE 17:15:41 19° E 17:18:44 10° NE
Cosmos 1538 Rocket 4.5 17:10:57 10° N 17:15:45 37° ENE 17:20:31 10° SE
CZ-3B R/B 3.1 17:15:02 10° NNW 17:16:55 18° NNE 17:20:09 10° ENE
Cosmos 1777 Rocket 4.2 17:13:40 10° S 17:18:45 54° ESE 17:23:54 10° NNE
CORIOLIS 4.3 17:13:54 10° SSE 17:19:19 83° WSW 17:24:44 10° NNW
Cosmos 2263 Rocket 2.7 17:15:01 10° SW 17:20:40 64° WNW 17:26:19 10° NNE
NOAA 11 4.3 17:19:16 10° SSE 17:24:46 83° WSW 17:30:19 10° NNW
Cosmos 1455 3.5 17:23:57 10° NNE 17:26:48 20° ENE 17:29:39 10° ESE
Cosmos 2058 Rocket 3.5 17:24:37 10° N 17:28:53 40° ENE 17:33:08 10° SSE
Cosmos 1300 3.0 17:27:20 10° NNW 17:31:09 69° W 17:34:57 10° S
X-37B 2.0 17:28:30 10° SSW 17:31:14 26° SSE 17:33:14 15° E
ARGOS 4.1 17:32:50 10° ESE 17:37:03 24° ENE 17:41:16 10° N
Okean 1-7 Rocket 3.9 17:35:36 10° SSE 17:39:56 46° E 17:44:18 10° NNE
CREW DRAGON DEMO-1 DEB 4.3 17:38:42 10° NW 17:41:02 21° NNE 17:41:52 19° NE
Lacrosse 5 2.4 17:36:41 10° NW 17:41:28 40° NNE 17:44:59 17° E
ISS -3.1 17:40:10 10° SSW 17:43:21 41° SE 17:45:00 23° E
Cosmos 1943 4.2 17:38:21 10° NW 17:43:51 52° WSW 17:49:16 10° S
Cosmos 1939 Rocket 3.0 17:39:49 10° S 17:43:58 84° W 17:48:04 10° NNW
Cosmos 1726 Rocket 3.6 17:40:04 10° N 17:44:28 86° WSW 17:48:51 10° S
ERS-2 2.5 17:42:03 11° NNE 17:45:22 40° E 17:48:48 10° S
Meteor 1-24 Rocket 4.1 17:41:33 10° SSW 17:46:52 63° WNW 17:52:08 10° N
CZ-2C R/B 4.0 17:45:49 18° ENE 17:47:02 19° E 17:50:56 10° SE
EXPRESS MD2 4.2 17:38:26 10° WNW 17:47:05 76° NNE 17:50:21 17° ESE
PSLV R/B 4.5 17:43:47 10° NNE 17:47:45 38° E 17:51:41 10° SSE
COSMOS 2455 2.8 17:41:59 10° SSW 17:47:59 80° ESE 17:54:02 10° NNE
Cosmos 1626 Rocket 4.3 17:47:23 10° SSE 17:51:13 31° E 17:54:01 16° NE
Cosmos 1844 4.1 17:47:47 10° S 17:53:03 42° ESE 17:57:10 16° NE
IRS-1C Rocket 4.0 17:49:32 10° SSE 17:54:46 72° ENE 18:00:01 10° N
Cosmos 1833 Rocket 4.4 17:52:05 10° N 17:54:41 14° NE 17:54:41 14° NE
CZ-4 R/B 1.5 17:52:17 10° SSE 17:56:17 51° ENE 18:00:13 10° N
Feng Yun 1-1 Rocket 4.3 17:52:03 10° SSE 17:57:27 83° WSW 18:03:01 10° NNW
COSMO-SKYMED 1 2.7 17:58:33 10° N 18:02:54 74° WNW 18:07:13 10° SSW
USA 267 4.1 18:04:12 23° E 18:06:56 30° SE 18:12:32 10° S
Okean-O 2.5 18:07:59 10° SSE 18:12:23 70° ENE 18:16:49 10° N
CZ-4B R/B 2.9 18:09:49 10° N 18:12:58 37° WNW 18:16:03 10° SW
CZ-2C R/B 3.3 18:08:37 10° S 18:13:51 76° WSW 18:19:26 10° NNW
Cosmos 1844 Rocket 2.6 18:09:20 10° SSW 18:14:59 79° ESE 18:19:24 17° NNE
Okean O Rocket 4.2 18:11:59 10° SSW 18:15:32 23° W 18:19:06 10° NW
H-2A R/B 1.8 18:11:25 10° SSE 18:16:20 69° ENE 18:21:24 10° N
OE (NEXTSAT) 4.3 18:13:52 10° W 18:17:18 69° N 18:17:46 58° NE
Cosmos 923 Rocket 4.0 18:12:17 10° NNW 18:17:34 56° ENE 18:22:46 10° SE
Meteor 1-21 Rocket 4.1 18:12:11 10° S 18:17:39 69° E 18:23:11 10° NNE
Aureole 2 Rocket 2.6 18:15:29 10° SSW 18:18:25 56° WNW 18:19:28 34° N
Cosmos 1689 Rocket 1.9 18:20:00 74° S 18:20:00 74° S 18:22:37 10° SSW
Cosmos 158 Rocket 3.9 18:17:39 10° NNW 18:22:59 69° ENE 18:28:21 10° SSE
Cosmos 1898 Rocket 3.9 18:18:32 10° S 18:23:23 39° ESE 18:23:42 38° E
Cosmos 1680 Rocket 3.6 18:19:50 10° N 18:24:56 49° ENE 18:26:36 36° ESE
Cosmos 1627 Rocket 4.5 18:23:36 10° SSE 18:29:35 55° E 18:35:39 10° NNE
Cosmos 2098 Rocket 4.5 18:24:16 10° SSE 18:30:53 47° E 18:37:56 10° NNE
Cosmos 1602 Rocket 3.4 18:26:56 10° S 18:31:11 61° E 18:31:34 58° ENE
Cosmos 1818 3.6 18:26:36 10° SW 18:32:01 78° NW 18:34:52 29° NNE
SAR-Lupe-4 4.0 18:31:28 28° N 18:33:09 62° WNW 18:36:40 10° SSW
YAOGAN 1 2.8 18:30:03 10° S 18:34:21 71° WSW 18:38:41 10° NNW
CSL-04 Rocket 3.5 18:32:48 10° SSE 18:38:09 73° ENE 18:43:38 10° N
Helios 1A Rocket 3.0 18:35:08 10° S 18:39:15 78° WSW 18:43:26 10° NNW
USA 234 3.9 18:40:19 33° NE 18:41:47 37° NNE 18:47:41 10° NW
Cosmos 1092 Rocket 3.9 18:38:27 10° S 18:44:40 87° E 18:50:52 10° N
ATLAS 5 CENTAUR R/B 4.0 18:43:03 10° WNW 18:45:33 15° NNW 18:47:38 12° N
Iridium 4 Rocket 3.5 18:41:48 10° N 18:47:32 80° E 18:52:47 10° S
Cosmos 1812 Rocket 4.4 18:46:07 10° N 18:48:54 38° N 18:48:54 38° N
SJ 16-02 2.4 18:49:44 10° SW 18:53:55 42° WNW 18:55:59 25° N
Cosmos 2344 4.4 18:45:24 10° NNW 18:54:31 59° NE 18:59:35 37° ESE
Cosmos 1937 Rocket 4.3 18:53:23 10° S 18:56:45 38° SSE 18:56:45 38° SSE
Cosmos 1455 4.2 18:59:07 10° NNW 19:02:25 28° W 19:05:43 10° SSW
Cosmos 2112 Rocket 3.9 18:57:10 10° NNW 19:02:18 85° N 19:02:18 85° N
Cosmos 1703 4.5 19:03:47 10° SSW 19:07:02 40° W 19:07:02 40° W
X-37B 3.4 19:04:26 10° WSW 19:05:31 20° WSW 19:05:31 20° WSW
ARGOS 3.9 19:11:48 10° S 19:16:58 50° W 19:22:12 10° NNW
COSMOS 2406 4.3 19:11:36 10° NNW 19:14:49 32° N 19:14:49 32° N
Cosmos 44 4.0 19:15:11 10° SW 19:18:46 50° WSW 19:18:46 50° WSW
ISS -0.8 19:17:01 10° W 19:17:58 17° W 19:17:58 17° W
Lacrosse 5 2.7 19:19:41 10° WNW 19:24:15 46° WSW 19:24:15 46° WSW
CZ-2C R/B 3.0 19:27:19 61° NW 19:27:42 63° WNW 19:33:14 10° SSW
NOSS 3-1 (C) 4.0 19:26:00 10° NW 19:33:38 89° WSW 19:34:40 72° SSE
Cosmos 1833 Rocket 4.4 19:34:20 10° NNW 19:36:25 23° NNW 19:36:25 23° NNW
Cosmos 2082 Rocket 4.4 19:36:46 10° NNW 19:37:48 15° N 19:37:48 15° N
USA 267 3.5 19:51:34 62° WSW 19:51:34 62° WSW 19:56:54 10° WSW
USA 229 DEB 4.1 19:43:12 10° NW 19:49:18 65° NNW 19:49:18 65° NNW
USA 229 4.1 19:43:18 10° NW 19:49:21 64° NNW 19:49:21 64° NNW
NOSS 3-1 (A) 4.4 19:58:35 10° NW 20:04:26 60° NW 20:04:26 60° NW
